CREW DRAGON 12

Last updated on Thu Aug 20 2026 00:02:05 GMT+0000 (Coordinated Universal Time)

1 67796U 26031A 26231.53387315 .00011071 00000+0 20501-3 0 9996 2 67796 51.6332 346.5707 0007664 63.0282 297.1489 15.49512520581764
UTC large
Height (km)
Speed (km/s)
/
Latitude / Longitude
Inclination (degrees)
Orbital Period (minutes)
Azimuth
Elevation
Range (km)
Doppler Factor

Next 0 passes for location: London (51.5072 / 0.1276)

No passes found over London.
CREW DRAGON 12